This is the latest recevied weather packets stored in our database for station/object VA3VWX-13. If no packets are shown the sender has not sent any weather packets the latest 1 day(s).
| Time | Temp. | Humidity | Pressure | Rain* | Wind** | Luminosity | Snow |
|---|---|---|---|---|---|---|---|
| 1778106513 | 11.11° C | 56% | 1011.9 hPa | 0 mm | - | - | - |
| 1778104709 | 10.56° C | 55% | 1011.5 hPa | 0 mm | - | - | - |
| 1778104124 | 10.56° C | 56% | 1011.4 hPa | 0 mm | - | - | - |
| 1778102319 | 8.89° C | 60% | 1011.2 hPa | 0 mm | - | - | - |
| 1778101703 | 8.33° C | 64% | 1011 hPa | 0 mm | - | - | - |
| 1778100807 | 8.33° C | 72% | 1010.9 hPa | 0 mm | - | - | - |
| 1778098422 | 7.22° C | 74% | 1011.1 hPa | 0 mm | - | - | - |
| 1778098129 | 7.22° C | 76% | 1011.2 hPa | 0 mm | - | - | - |
| 1778096619 | 6.67° C | 80% | 1011.3 hPa | 0 mm | - | - | - |
| 1778096306 | 6.67° C | 81% | 1011.3 hPa | 0 mm | - | - | - |
| 1778095713 | 6.11° C | 82% | 1011.4 hPa | 0 mm | - | - | - |
| 1778095420 | 6.11° C | 83% | 1011.2 hPa | 0 mm | - | - | - |
| 1778095107 | 6.11° C | 84% | 1011.2 hPa | 0 mm | - | - | - |
| 1778094229 | 6.11° C | 86% | 1011.3 hPa | 0 mm | - | - | - |
| 1778093005 | 5.56° C | 89% | 1011.3 hPa | 0 mm | - | - | - |
| 1778092410 | 5.56° C | 90% | 1011.3 hPa | 0 mm | - | - | - |
| 1778091822 | 5.56° C | 90% | 1011.2 hPa | 0 mm | - | - | - |
| 1778091529 | 5.56° C | 90% | 1011 hPa | 0 mm | - | - | - |
| 1778090912 | 5.56° C | 90% | 1011.1 hPa | 0 mm | - | - | - |
| 1778090630 | 6.11° C | 90% | 1010.9 hPa | 0 mm | - | - | - |
| 1778090310 | 6.11° C | 90% | 1011 hPa | 0 mm | - | - | - |
| 1778089722 | 6.11° C | 90% | 1010.9 hPa | 0 mm | - | - | - |
| 1778089122 | 6.67° C | 91% | 1010.9 hPa | 0 mm | - | - | - |
| 1778087307 | 7.22° C | 91% | 1010.7 hPa | 1.02 mm | - | - | - |
| 1778086125 | 7.22° C | 92% | 1010.6 hPa | 1.02 mm | - | - | - |
* Rain latest hour (hover to see other rain measurements)
** Current wind speed in m/s (hover to see current wind gust speed)